Orbital Elements at Epoch 2457467.5 (2016-Mar-20.0) TDB
Reference: JPL K203/18 (heliocentric ecliptic J2000)
Element | Value | Uncertainty (1-sigma) | Units |
e | .3893476920698341 | 5.0921e-07 | |
a | 3.440869358876915 | 2.8337e-07 | au |
q | 2.101174815284378 | 1.7475e-06 | au |
i | 2.6023944932398 | 2.6702e-05 | deg |
node | 181.8898060895848 | 0.00031244 | deg |
peri | 24.75638615410691 | 0.00066668 | deg |
M | 126.7935222833317 | 0.00024799 | deg |
tp | 2456646.401481615152 (2013-Dec-19.90148162) | 0.0016097 | TDB |
period | 2331.313629398277 6.38 | 0.00028799 7.885e-07 | d yr |
n | .1544193777535276 | 1.9076e-08 | deg/d |
Q | 4.780563902469451 | 3.9371e-07 | au |
|
Additional Model Parameters
Parameter | Value | Uncertainty (1-sigma) |
A1 [EST] | 1.255996545216359E-8 | 1.286E-9 |
A2 [EST] | -2.017205026726924E-9 | 4.033E-11 |
A3 [EST] | 5.855153256434009E-9 | 2.393E-10 |
|
| | Orbit Determination Parameters
Additional Information
|